Content
SEND FEEDBACK

Daily
Averages
Monthly
Summary
United States of America

ST. LOUIS, MISSOURI


Home > North America > United States > Missouri
Elevation: 535 feet     Latitude: 38 45N     Longitude: 090 22W

WEATHER
 
SELECT A DAY
Number of Records: 200,566;   Date Range: 1/1/95 - 11/24/14
 
SHARE

PRINT THIS DATA

[ ← Previous Day ]
WEATHER ALMANAC - JUNE 29, 2013
[ Next Day → ]
[ °C ]   °F
We're sorry. There is no daily almanac available for St. Louis, Missouri on June 29, 2013.
WEATHER BY HOUR - JUNE 29, 2013
[ °C ]   °F
Local TimeTemperatureDewpointHumidityBarometerVisibilityWind DirectionWind SpeedGust SpeedPrecipitationEventsConditions
1:54 AM71.1 °F60.1 °F68 %29.70 in10.0 miWest (260°)5.8 mphOvercast
2:54 AM69.1 °F60.1 °F73 %29.69 in10.0 miWest (260°)5.8 mphClear
3:54 AM66.9 °F60.1 °F79 %29.69 in10.0 miWSW (250°)6.9 mphClear
4:54 AM66.0 °F60.1 °F81 %29.69 in10.0 miWSW (250°)5.8 mphClear
5:54 AM66.0 °F60.1 °F81 %29.70 in10.0 miWSW (250°)8.1 mphPartly Cloudy
6:54 AM69.1 °F60.1 °F73 %29.69 in10.0 miWest (260°)5.8 mphClear
7:54 AM73.0 °F60.1 °F64 %29.69 in10.0 miWNW (290°)9.2 mphClear
8:54 AM75.9 °F62.1 °F62 %29.69 in10.0 miWNW (290°)12.7 mphClear
9:54 AM77.0 °F61.0 °F58 %29.68 in10.0 miNW (310°)19.6 mph25.3 mphPartly Cloudy
10:54 AM79.0 °F62.1 °F56 %29.68 in10.0 miWNW (300°)13.8 mph25.3 mphPartly Cloudy
11:54 AM78.1 °F60.1 °F54 %29.68 in10.0 miWNW (300°)16.1 mphMostly Cloudy
12:54 PM81.0 °F61.0 °F50 %29.67 in10.0 miNW (310°)16.1 mph23.0 mphPartly Cloudy
1:54 PM82.0 °F62.1 °F51 %29.65 in10.0 miNW (310°)11.5 mph23.0 mphPartly Cloudy
2:49 PM82.4 °F62.6 °F51 %29.66 in10.0 miNW (320°)16.1 mph20.7 mphThunderstormMostly Cloudy
2:54 PM82.9 °F62.1 °F49 %29.64 in10.0 miNW (320°)16.1 mphThunderstormMostly Cloudy
3:07 PM71.6 °F55.4 °F57 %29.69 in7.0 miNNE (20°)11.5 mph41.4 mph0.02 inRain-ThunderstormLight Thunderstorms and Rain
3:35 PM71.6 °F62.6 °F73 %29.68 in10.0 miCalm0.08 inPartly Cloudy
3:46 PM75.2 °F62.6 °F65 %29.68 in10.0 miVariable3.5 mph0.08 inThunderstormMostly Cloudy
3:54 PM78.1 °F64.0 °F62 %29.65 in10.0 miNNW (330°)10.4 mph0.08 inThunderstormMostly Cloudy
4:21 PM75.2 °F62.6 °F65 %29.69 in10.0 miWest (280°)6.9 mph0.00 inThunderstormMostly Cloudy
4:26 PM75.2 °F62.6 °F65 %29.69 in10.0 miWest (280°)8.1 mph0.00 inThunderstormMostly Cloudy
4:47 PM78.8 °F64.4 °F61 %29.69 in10.0 miNNW (340°)9.2 mph0.00 inMostly Cloudy
4:54 PM79.0 °F63.0 °F58 %29.67 in10.0 miNNW (340°)11.5 mph0.00 inMostly Cloudy
5:54 PM73.9 °F60.1 °F62 %29.68 in10.0 miNNW (330°)9.2 mphScattered Clouds
6:54 PM71.1 °F59.0 °F66 %29.68 in10.0 miNW (320°)6.9 mph0.00 inMostly Cloudy
7:54 PM70.0 °F60.1 °F71 %29.69 in10.0 miWNW (300°)6.9 mphMostly Cloudy
8:54 PM68.0 °F60.1 °F76 %29.71 in10.0 miNW (310°)6.9 mphScattered Clouds
9:54 PM68.0 °F61.0 °F78 %29.72 in10.0 miNW (320°)5.8 mphClear
10:54 PM68.0 °F62.1 °F81 %29.72 in10.0 miNNW (330°)8.1 mphScattered Clouds
11:22 PM68.0 °F62.6 °F83 %29.74 in10.0 miNW (320°)6.9 mphMostly Cloudy
11:54 PM68.0 °F62.1 °F81 %29.73 in10.0 miNNW (330°)10.4 mphOvercast
Hourly data recorded from KSUS, located miles away from St. Louis, Missouri







STORIES FROM OUR PARTNERS